Year,Month,Day,Hour,Minute,Value (Times are PST for temperature in C)
2010,07,19,00,00,12.10
2010,07,19,00,01,12.10
2010,07,19,00,02,12.00
2010,07,19,00,03,12.00
2010,07,19,00,04,12.00
2010,07,19,00,05,12.00
2010,07,19,00,06,12.00
2010,07,19,00,07,11.90
2010,07,19,00,08,11.90
2010,07,19,00,09,11.90
2010,07,19,00,10,11.90
2010,07,19,00,11,11.90
2010,07,19,00,12,11.80
2010,07,19,00,13,11.80
2010,07,19,00,14,11.80
2010,07,19,00,15,11.80
2010,07,19,00,16,11.70
2010,07,19,00,17,11.70
2010,07,19,00,18,11.70
2010,07,19,00,19,11.70
2010,07,19,00,20,11.70
2010,07,19,00,21,11.70
2010,07,19,00,22,11.70
2010,07,19,00,23,11.70
2010,07,19,00,24,11.70
2010,07,19,00,25,11.70
2010,07,19,00,26,11.70
2010,07,19,00,27,11.70
2010,07,19,00,28,11.70
2010,07,19,00,29,11.70
2010,07,19,00,30,11.70
2010,07,19,00,31,11.70
2010,07,19,00,32,11.60
2010,07,19,00,33,11.60
2010,07,19,00,34,11.60
2010,07,19,00,35,11.60
2010,07,19,00,36,11.60
2010,07,19,00,37,11.60
2010,07,19,00,38,11.50
2010,07,19,00,39,11.50
2010,07,19,00,40,11.50
2010,07,19,00,41,11.50
2010,07,19,00,42,11.50
2010,07,19,00,43,11.50
2010,07,19,00,44,11.40
2010,07,19,00,45,11.40
2010,07,19,00,46,11.40
2010,07,19,00,47,11.40
2010,07,19,00,48,11.40
2010,07,19,00,49,11.30
2010,07,19,00,50,11.30
2010,07,19,00,51,11.30
2010,07,19,00,52,11.30
2010,07,19,00,53,11.30
2010,07,19,00,54,11.30
2010,07,19,00,55,11.30
2010,07,19,00,56,11.30
2010,07,19,00,57,11.30
2010,07,19,00,58,11.30
2010,07,19,00,59,11.30
2010,07,19,01,00,11.30
2010,07,19,01,01,11.30
2010,07,19,01,02,11.30
2010,07,19,01,03,11.30
2010,07,19,01,04,11.30
2010,07,19,01,05,11.30
2010,07,19,01,06,11.30
2010,07,19,01,07,11.30
2010,07,19,01,08,11.30
2010,07,19,01,09,11.30
2010,07,19,01,10,11.30
2010,07,19,01,11,11.30
2010,07,19,01,12,11.30
2010,07,19,01,13,11.30
2010,07,19,01,14,11.30
2010,07,19,01,15,11.30
2010,07,19,01,16,11.20
2010,07,19,01,17,11.20
2010,07,19,01,18,11.20
2010,07,19,01,19,11.20
2010,07,19,01,20,11.20
2010,07,19,01,21,11.20
2010,07,19,01,22,11.10
2010,07,19,01,23,11.10
2010,07,19,01,24,11.10
2010,07,19,01,25,11.00
2010,07,19,01,26,11.00
2010,07,19,01,27,10.90
2010,07,19,01,28,10.90
2010,07,19,01,29,10.90
2010,07,19,01,30,10.90
2010,07,19,01,31,10.90
2010,07,19,01,32,10.90
2010,07,19,01,33,10.90
2010,07,19,01,34,11.00
2010,07,19,01,35,10.90
2010,07,19,01,36,10.90
2010,07,19,01,37,10.90
2010,07,19,01,38,10.90
2010,07,19,01,39,10.90
2010,07,19,01,40,10.90
2010,07,19,01,41,10.90
2010,07,19,01,42,10.90
2010,07,19,01,43,10.90
2010,07,19,01,44,10.90
2010,07,19,01,45,10.90
2010,07,19,01,46,11.00
2010,07,19,01,47,11.00
2010,07,19,01,48,11.00
2010,07,19,01,49,11.00
2010,07,19,01,50,10.90
2010,07,19,01,51,10.90
2010,07,19,01,52,10.90
2010,07,19,01,53,10.90
2010,07,19,01,54,10.90
2010,07,19,01,55,10.90
2010,07,19,01,56,10.90
2010,07,19,01,57,10.90
2010,07,19,01,58,10.90
2010,07,19,01,59,10.80
2010,07,19,02,00,10.80
2010,07,19,02,01,10.80
2010,07,19,02,02,10.80
2010,07,19,02,03,10.80
2010,07,19,02,04,10.80
2010,07,19,02,05,10.80
2010,07,19,02,06,10.80
2010,07,19,02,07,10.80
2010,07,19,02,08,10.80
2010,07,19,02,09,10.80
2010,07,19,02,10,10.80
2010,07,19,02,11,10.70
2010,07,19,02,12,10.70
2010,07,19,02,13,10.70
2010,07,19,02,14,10.70
2010,07,19,02,15,10.70
2010,07,19,02,16,10.70
2010,07,19,02,17,10.70
2010,07,19,02,18,10.70
2010,07,19,02,19,10.70
2010,07,19,02,20,10.70
2010,07,19,02,21,10.60
2010,07,19,02,22,10.60
2010,07,19,02,23,10.60
2010,07,19,02,24,10.60
2010,07,19,02,25,10.60
2010,07,19,02,26,10.60
2010,07,19,02,27,10.60
2010,07,19,02,28,10.60
2010,07,19,02,29,10.60
2010,07,19,02,30,10.60
2010,07,19,02,31,10.60
2010,07,19,02,32,10.60
2010,07,19,02,33,10.60
2010,07,19,02,34,10.60
2010,07,19,02,35,10.60
2010,07,19,02,36,10.60
2010,07,19,02,37,10.60
2010,07,19,02,38,10.60
2010,07,19,02,39,10.60
2010,07,19,02,40,10.50
2010,07,19,02,41,10.50
2010,07,19,02,42,10.50
2010,07,19,02,43,10.50
2010,07,19,02,44,10.50
2010,07,19,02,45,10.50
2010,07,19,02,46,10.40
2010,07,19,02,47,10.40
2010,07,19,02,48,10.40
2010,07,19,02,49,10.40
2010,07,19,02,50,10.40
2010,07,19,02,51,10.40
2010,07,19,02,52,10.40
2010,07,19,02,53,10.40
2010,07,19,02,54,10.40
2010,07,19,02,55,10.40
2010,07,19,02,56,10.40
2010,07,19,02,57,10.40
2010,07,19,02,58,10.40
2010,07,19,02,59,10.40
2010,07,19,03,00,10.40
2010,07,19,03,01,10.40
2010,07,19,03,02,10.40
2010,07,19,03,03,10.40
2010,07,19,03,04,10.40
2010,07,19,03,05,10.40
2010,07,19,03,06,10.40
2010,07,19,03,07,10.40
2010,07,19,03,08,10.40
2010,07,19,03,09,10.40
2010,07,19,03,10,10.40
2010,07,19,03,11,10.40
2010,07,19,03,12,10.40
2010,07,19,03,13,10.40
2010,07,19,03,14,10.40
2010,07,19,03,15,10.40
2010,07,19,03,16,10.40
2010,07,19,03,17,10.40
2010,07,19,03,18,10.40
2010,07,19,03,19,10.40
2010,07,19,03,20,10.30
2010,07,19,03,21,10.30
2010,07,19,03,22,10.30
2010,07,19,03,23,10.30
2010,07,19,03,24,10.30
2010,07,19,03,25,10.30
2010,07,19,03,26,10.30
2010,07,19,03,27,10.30
2010,07,19,03,28,10.30
2010,07,19,03,29,10.30
2010,07,19,03,30,10.30
2010,07,19,03,31,10.30
2010,07,19,03,32,10.30
2010,07,19,03,33,10.30
2010,07,19,03,34,10.30
2010,07,19,03,35,10.30
2010,07,19,03,36,10.30
2010,07,19,03,37,10.30
2010,07,19,03,38,10.30
2010,07,19,03,39,10.30
2010,07,19,03,40,10.30
2010,07,19,03,41,10.30
2010,07,19,03,42,10.30
2010,07,19,03,43,10.30
2010,07,19,03,44,10.30
2010,07,19,03,45,10.30
2010,07,19,03,46,10.20
2010,07,19,03,47,10.20
2010,07,19,03,48,10.20
2010,07,19,03,49,10.20
2010,07,19,03,50,10.20
2010,07,19,03,51,10.20
2010,07,19,03,52,10.20
2010,07,19,03,53,10.20
2010,07,19,03,54,10.20
2010,07,19,03,55,10.20
2010,07,19,03,56,10.20
2010,07,19,03,57,10.20
2010,07,19,03,58,10.20
2010,07,19,03,59,10.20
2010,07,19,04,00,10.20
2010,07,19,04,01,10.20
2010,07,19,04,02,10.20
2010,07,19,04,03,10.20
2010,07,19,04,04,10.20
2010,07,19,04,05,10.20
2010,07,19,04,06,10.10
2010,07,19,04,07,10.20
2010,07,19,04,08,10.20
2010,07,19,04,09,10.20
2010,07,19,04,10,10.10
2010,07,19,04,11,10.10
2010,07,19,04,12,10.10
2010,07,19,04,13,10.10
2010,07,19,04,14,10.10
2010,07,19,04,15,10.10
2010,07,19,04,16,10.10
2010,07,19,04,17,10.10
2010,07,19,04,18,10.10
2010,07,19,04,19,10.10
2010,07,19,04,20,10.10
2010,07,19,04,21,10.10
2010,07,19,04,22,10.10
2010,07,19,04,23,10.10
2010,07,19,04,24,10.10
2010,07,19,04,25,10.10
2010,07,19,04,26,10.10
2010,07,19,04,27,10.10
2010,07,19,04,28,10.10
2010,07,19,04,29,10.10
2010,07,19,04,30,10.10
2010,07,19,04,31,10.10
2010,07,19,04,32,10.00
2010,07,19,04,33,10.00
2010,07,19,04,34,10.00
2010,07,19,04,35,10.00
2010,07,19,04,36,10.00
2010,07,19,04,37,10.10
2010,07,19,04,38,10.10
2010,07,19,04,39,10.10
2010,07,19,04,40,10.10
2010,07,19,04,41,10.10
2010,07,19,04,42,10.10
2010,07,19,04,43,10.10
2010,07,19,04,44,10.10
2010,07,19,04,45,10.10
2010,07,19,04,46,10.10
2010,07,19,04,47,10.10
2010,07,19,04,48,10.10
2010,07,19,04,49,10.10
2010,07,19,04,50,10.10
2010,07,19,04,51,10.10
2010,07,19,04,52,10.10
2010,07,19,04,53,10.10
2010,07,19,04,54,10.10
2010,07,19,04,55,10.10
2010,07,19,04,56,10.10
2010,07,19,04,57,10.00
2010,07,19,04,58,10.10
2010,07,19,04,59,10.00
2010,07,19,05,00,10.00
2010,07,19,05,01,10.00
2010,07,19,05,02,10.00
2010,07,19,05,03,10.00
2010,07,19,05,04,10.00
2010,07,19,05,05,10.00
2010,07,19,05,06,9.90
2010,07,19,05,07,9.90
2010,07,19,05,08,9.90
2010,07,19,05,09,9.90
2010,07,19,05,10,9.90
2010,07,19,05,11,9.90
2010,07,19,05,12,9.90
2010,07,19,05,13,9.90
2010,07,19,05,14,9.80
2010,07,19,05,15,9.80
2010,07,19,05,16,9.80
2010,07,19,05,17,9.80
2010,07,19,05,18,9.80
2010,07,19,05,19,9.80
2010,07,19,05,20,9.80
2010,07,19,05,21,9.80
2010,07,19,05,22,9.80
2010,07,19,05,23,9.80
2010,07,19,05,24,9.80
2010,07,19,05,25,9.80
2010,07,19,05,26,9.80
2010,07,19,05,27,9.80
2010,07,19,05,28,9.80
2010,07,19,05,29,9.80
2010,07,19,05,30,9.80
2010,07,19,05,31,9.80
2010,07,19,05,32,9.80
2010,07,19,05,33,9.90
2010,07,19,05,34,9.90
2010,07,19,05,35,9.90
2010,07,19,05,36,9.90
2010,07,19,05,37,9.80
2010,07,19,05,38,9.80
2010,07,19,05,39,9.80
2010,07,19,05,40,9.80
2010,07,19,05,41,9.80
2010,07,19,05,42,9.80
2010,07,19,05,43,9.80
2010,07,19,05,44,9.80
2010,07,19,05,45,9.80
2010,07,19,05,46,9.80
2010,07,19,05,47,9.80
2010,07,19,05,48,9.80
2010,07,19,05,49,9.80
2010,07,19,05,50,9.80
2010,07,19,05,51,9.80
2010,07,19,05,52,9.80
2010,07,19,05,53,9.80
2010,07,19,05,54,9.80
2010,07,19,05,55,9.80
2010,07,19,05,56,9.80
2010,07,19,05,57,9.80
2010,07,19,05,58,9.80
2010,07,19,05,59,9.80
2010,07,19,06,00,9.80
2010,07,19,06,01,9.80
2010,07,19,06,02,9.80
2010,07,19,06,03,9.80
2010,07,19,06,04,9.80
2010,07,19,06,05,9.80
2010,07,19,06,06,9.80
2010,07,19,06,07,9.80
2010,07,19,06,08,9.80
2010,07,19,06,09,9.80
2010,07,19,06,10,9.80
2010,07,19,06,11,9.80
2010,07,19,06,12,9.80
2010,07,19,06,13,9.80
2010,07,19,06,14,9.80
2010,07,19,06,15,9.80
2010,07,19,06,16,9.80
2010,07,19,06,17,9.80
2010,07,19,06,18,9.80
2010,07,19,06,19,9.80
2010,07,19,06,20,9.80
2010,07,19,06,21,9.90
2010,07,19,06,22,9.90
2010,07,19,06,23,9.90
2010,07,19,06,24,9.90
2010,07,19,06,25,9.90
2010,07,19,06,26,9.90
2010,07,19,06,27,10.00
2010,07,19,06,28,10.00
2010,07,19,06,29,10.00
2010,07,19,06,30,10.00
2010,07,19,06,31,10.10
2010,07,19,06,32,10.10
2010,07,19,06,33,10.20
2010,07,19,06,34,10.20
2010,07,19,06,35,10.20
2010,07,19,06,36,10.20
2010,07,19,06,37,10.20
2010,07,19,06,38,10.30
2010,07,19,06,39,10.30
2010,07,19,06,40,10.30
2010,07,19,06,41,10.30
2010,07,19,06,42,10.40
2010,07,19,06,43,10.40
2010,07,19,06,44,10.40
2010,07,19,06,45,10.50
2010,07,19,06,46,10.50
2010,07,19,06,47,10.50
2010,07,19,06,48,10.60
2010,07,19,06,49,10.60
2010,07,19,06,50,10.70
2010,07,19,06,51,10.70
2010,07,19,06,52,10.80
2010,07,19,06,53,10.80
2010,07,19,06,54,10.90
2010,07,19,06,55,10.90
2010,07,19,06,56,11.00
2010,07,19,06,57,11.10
2010,07,19,06,58,11.10
2010,07,19,06,59,11.20
2010,07,19,07,00,11.20
2010,07,19,07,01,11.30
2010,07,19,07,02,11.40
2010,07,19,07,03,11.40
2010,07,19,07,04,11.50
2010,07,19,07,05,11.60
2010,07,19,07,06,11.60
2010,07,19,07,07,11.70
2010,07,19,07,08,11.80
2010,07,19,07,09,11.80
2010,07,19,07,10,11.90
2010,07,19,07,11,12.00
2010,07,19,07,12,12.00
2010,07,19,07,13,12.10
2010,07,19,07,14,12.20
2010,07,19,07,15,12.20
2010,07,19,07,16,12.30
2010,07,19,07,17,12.40
2010,07,19,07,18,12.40
2010,07,19,07,19,12.50
2010,07,19,07,20,12.60
2010,07,19,07,21,12.70
2010,07,19,07,22,12.70
2010,07,19,07,23,12.80
2010,07,19,07,24,12.80
2010,07,19,07,25,12.90
2010,07,19,07,26,12.90
2010,07,19,07,27,13.00
2010,07,19,07,28,13.00
2010,07,19,07,29,13.10
2010,07,19,07,30,13.10
2010,07,19,07,31,13.20
2010,07,19,07,32,13.20
2010,07,19,07,33,13.30
2010,07,19,07,34,13.30
2010,07,19,07,35,13.30
2010,07,19,07,36,13.30
2010,07,19,07,37,13.40
2010,07,19,07,38,13.40
2010,07,19,07,39,13.50
2010,07,19,07,40,13.50
2010,07,19,07,41,13.50
2010,07,19,07,42,13.60
2010,07,19,07,43,13.60
2010,07,19,07,44,13.60
2010,07,19,07,45,13.70
2010,07,19,07,46,13.70
2010,07,19,07,47,13.80
2010,07,19,07,48,13.80
2010,07,19,07,49,13.80
2010,07,19,07,50,13.90
2010,07,19,07,51,13.90
2010,07,19,07,52,13.90
2010,07,19,07,53,13.90
2010,07,19,07,54,13.90
2010,07,19,07,55,14.00
2010,07,19,07,56,14.00
2010,07,19,07,57,14.00
2010,07,19,07,58,14.00
2010,07,19,07,59,14.00
2010,07,19,08,00,14.00
2010,07,19,08,01,13.90
2010,07,19,08,02,13.90
2010,07,19,08,03,13.90
2010,07,19,08,04,13.90
2010,07,19,08,05,13.90
2010,07,19,08,06,13.90
2010,07,19,08,07,13.90
2010,07,19,08,08,14.00
2010,07,19,08,09,13.90
2010,07,19,08,10,14.00
2010,07,19,08,11,13.90
2010,07,19,08,12,13.90
2010,07,19,08,13,13.90
2010,07,19,08,14,13.90
2010,07,19,08,15,13.90
2010,07,19,08,16,13.90
2010,07,19,08,17,13.90
2010,07,19,08,18,13.90
2010,07,19,08,19,13.90
2010,07,19,08,20,14.00
2010,07,19,08,21,14.00
2010,07,19,08,22,14.00
2010,07,19,08,23,14.00
2010,07,19,08,24,14.00
2010,07,19,08,25,14.00
2010,07,19,08,26,14.00
2010,07,19,08,27,14.00
2010,07,19,08,28,13.90
2010,07,19,08,29,13.90
2010,07,19,08,30,13.90
2010,07,19,08,31,13.90
2010,07,19,08,32,13.90
2010,07,19,08,33,13.80
2010,07,19,08,34,13.80
2010,07,19,08,35,13.80
2010,07,19,08,36,13.80
2010,07,19,08,37,13.80
2010,07,19,08,38,13.80
2010,07,19,08,39,13.80
2010,07,19,08,40,13.80
2010,07,19,08,41,13.80
2010,07,19,08,42,13.80
2010,07,19,08,43,13.80
2010,07,19,08,44,13.80
2010,07,19,08,45,13.80
2010,07,19,08,46,13.80
2010,07,19,08,47,13.80
2010,07,19,08,48,13.80
2010,07,19,08,49,13.80
2010,07,19,08,50,13.80
2010,07,19,08,51,13.80
2010,07,19,08,52,13.80
2010,07,19,08,53,13.70
2010,07,19,08,54,13.70
2010,07,19,08,55,13.70
2010,07,19,08,56,13.70
2010,07,19,08,57,13.70
2010,07,19,08,58,13.70
2010,07,19,08,59,13.70
2010,07,19,09,00,13.70
2010,07,19,09,01,13.70
2010,07,19,09,02,13.70
2010,07,19,09,03,13.70
2010,07,19,09,04,13.70
2010,07,19,09,05,13.70
2010,07,19,09,06,13.70
2010,07,19,09,07,13.70
2010,07,19,09,08,13.70
2010,07,19,09,09,13.70
2010,07,19,09,10,13.70
2010,07,19,09,11,13.70
2010,07,19,09,12,13.70
2010,07,19,09,13,13.70
2010,07,19,09,14,13.70
2010,07,19,09,15,13.70
2010,07,19,09,16,13.70
2010,07,19,09,17,13.80
2010,07,19,09,18,13.80
2010,07,19,09,19,13.80
2010,07,19,09,20,13.80
2010,07,19,09,21,13.80
2010,07,19,09,22,13.90
2010,07,19,09,23,13.90
2010,07,19,09,24,13.90
2010,07,19,09,25,14.00
2010,07,19,09,26,14.00
2010,07,19,09,27,14.00
2010,07,19,09,28,14.00
2010,07,19,09,29,14.10
2010,07,19,09,30,14.10
2010,07,19,09,31,14.10
2010,07,19,09,32,14.20
2010,07,19,09,33,14.20
2010,07,19,09,34,14.20
2010,07,19,09,35,14.20
2010,07,19,09,36,14.20
2010,07,19,09,37,14.20
2010,07,19,09,38,14.20
2010,07,19,09,39,14.30
2010,07,19,09,40,14.30
2010,07,19,09,41,14.30
2010,07,19,09,42,14.30
2010,07,19,09,43,14.30
2010,07,19,09,44,14.40
2010,07,19,09,45,14.40
2010,07,19,09,46,14.40
2010,07,19,09,47,14.50
2010,07,19,09,48,14.60
2010,07,19,09,49,14.60
2010,07,19,09,50,14.70
2010,07,19,09,51,14.70
2010,07,19,09,52,14.80
2010,07,19,09,53,14.80
2010,07,19,09,54,14.90
2010,07,19,09,55,14.90
2010,07,19,09,56,15.00
2010,07,19,09,57,15.00
2010,07,19,09,58,15.10
2010,07,19,09,59,15.10
2010,07,19,10,00,15.10
2010,07,19,10,01,15.20
2010,07,19,10,02,15.20
2010,07,19,10,03,15.20
2010,07,19,10,04,15.20
2010,07,19,10,05,15.20
2010,07,19,10,06,15.20
2010,07,19,10,07,15.20
2010,07,19,10,08,15.20
2010,07,19,10,09,15.30
2010,07,19,10,10,15.30
2010,07,19,10,11,15.30
2010,07,19,10,12,15.30
2010,07,19,10,13,15.30
2010,07,19,10,14,15.30
2010,07,19,10,15,15.20
2010,07,19,10,16,15.20
2010,07,19,10,17,15.20
2010,07,19,10,18,15.10
2010,07,19,10,19,15.10
2010,07,19,10,20,15.10
2010,07,19,10,21,15.10
2010,07,19,10,22,15.10
2010,07,19,10,23,15.10
2010,07,19,10,24,15.20
2010,07,19,10,25,15.20
2010,07,19,10,26,15.20
2010,07,19,10,27,15.20
2010,07,19,10,28,15.20
2010,07,19,10,29,15.10
2010,07,19,10,30,15.10
2010,07,19,10,31,15.00
2010,07,19,10,32,15.00
2010,07,19,10,33,15.10
2010,07,19,10,34,15.10
2010,07,19,10,35,15.10
2010,07,19,10,36,15.10
2010,07,19,10,37,15.10
2010,07,19,10,38,15.10
2010,07,19,10,39,15.10
2010,07,19,10,40,15.10
2010,07,19,10,41,15.10
2010,07,19,10,42,15.10
2010,07,19,10,43,15.10
2010,07,19,10,44,15.10
2010,07,19,10,45,15.10
2010,07,19,10,46,15.20
2010,07,19,10,47,15.20
2010,07,19,10,48,15.20
2010,07,19,10,49,15.30
2010,07,19,10,50,15.30
2010,07,19,10,51,15.30
2010,07,19,10,52,15.30
2010,07,19,10,53,15.30
2010,07,19,10,54,15.40
2010,07,19,10,55,15.40
2010,07,19,10,56,15.40
2010,07,19,10,57,15.50
2010,07,19,10,58,15.50
2010,07,19,10,59,15.60
2010,07,19,11,00,15.70
2010,07,19,11,01,15.70
2010,07,19,11,02,15.80
2010,07,19,11,03,15.80
2010,07,19,11,04,15.80
2010,07,19,11,05,15.80
2010,07,19,11,06,15.80
2010,07,19,11,07,15.80
2010,07,19,11,08,15.80
2010,07,19,11,09,15.90
2010,07,19,11,10,16.00
2010,07,19,11,11,16.00
2010,07,19,11,12,16.10
2010,07,19,11,13,16.10
2010,07,19,11,14,16.10
2010,07,19,11,15,16.10
2010,07,19,11,16,16.00
2010,07,19,11,17,16.00
2010,07,19,11,18,15.90
2010,07,19,11,19,15.80
2010,07,19,11,20,15.70
2010,07,19,11,21,15.70
2010,07,19,11,22,15.70
2010,07,19,11,23,15.70
2010,07,19,11,24,15.70
2010,07,19,11,25,15.80
2010,07,19,11,26,15.80
2010,07,19,11,27,15.80
2010,07,19,11,28,15.70
2010,07,19,11,29,15.70
2010,07,19,11,30,15.70
2010,07,19,11,31,15.70
2010,07,19,11,32,15.80
2010,07,19,11,33,15.80
2010,07,19,11,34,15.80
2010,07,19,11,35,15.80
2010,07,19,11,36,15.80
2010,07,19,11,37,15.80
2010,07,19,11,38,15.80
2010,07,19,11,39,15.80
2010,07,19,11,40,15.70
2010,07,19,11,41,15.70
2010,07,19,11,42,15.70
2010,07,19,11,43,15.70
2010,07,19,11,44,15.70
2010,07,19,11,45,15.70
2010,07,19,11,46,15.70
2010,07,19,11,47,15.80
2010,07,19,11,48,15.80
2010,07,19,11,49,15.80
2010,07,19,11,50,15.90
2010,07,19,11,51,15.90
2010,07,19,11,52,16.00
2010,07,19,11,53,16.00
2010,07,19,11,54,16.10
2010,07,19,11,55,16.10
2010,07,19,11,56,16.10
2010,07,19,11,57,16.10
2010,07,19,11,58,16.10
2010,07,19,11,59,16.10
2010,07,19,12,00,16.10
2010,07,19,12,01,16.10
2010,07,19,12,02,16.10
2010,07,19,12,03,16.10
2010,07,19,12,04,16.10
2010,07,19,12,05,16.00
2010,07,19,12,06,15.90
2010,07,19,12,07,15.90
2010,07,19,12,08,16.00
2010,07,19,12,09,16.00
2010,07,19,12,10,16.00
2010,07,19,12,11,16.00
2010,07,19,12,12,16.00
2010,07,19,12,13,16.00
2010,07,19,12,14,16.00
2010,07,19,12,15,16.00
2010,07,19,12,16,16.00
2010,07,19,12,17,16.00
2010,07,19,12,18,16.10
2010,07,19,12,19,16.10
2010,07,19,12,20,16.20
2010,07,19,12,21,16.20
2010,07,19,12,22,16.30
2010,07,19,12,23,16.30
2010,07,19,12,24,16.30
2010,07,19,12,25,16.40
2010,07,19,12,26,16.40
2010,07,19,12,27,16.40
2010,07,19,12,28,16.40
2010,07,19,12,29,16.40
2010,07,19,12,30,16.40
2010,07,19,12,31,16.40
2010,07,19,12,32,16.50
2010,07,19,12,33,16.50
2010,07,19,12,34,16.50
2010,07,19,12,35,16.60
2010,07,19,12,36,16.60
2010,07,19,12,37,16.60
2010,07,19,12,38,16.60
2010,07,19,12,39,16.60
2010,07,19,12,40,16.70
2010,07,19,12,41,16.70
2010,07,19,12,42,16.80
2010,07,19,12,43,16.90
2010,07,19,12,44,16.90
2010,07,19,12,45,16.90
2010,07,19,12,46,16.90
2010,07,19,12,47,16.90
2010,07,19,12,48,16.90
2010,07,19,12,49,17.00
2010,07,19,12,50,16.90
2010,07,19,12,51,17.00
2010,07,19,12,52,17.00
2010,07,19,12,53,17.00
2010,07,19,12,54,17.00
2010,07,19,12,55,16.90
2010,07,19,12,56,16.90
2010,07,19,12,57,17.00
2010,07,19,12,58,17.00
2010,07,19,12,59,17.10
2010,07,19,13,00,17.10
2010,07,19,13,01,17.10
2010,07,19,13,02,17.10
2010,07,19,13,03,17.10
2010,07,19,13,04,17.10
2010,07,19,13,05,17.10
2010,07,19,13,06,17.10
2010,07,19,13,07,17.10
2010,07,19,13,08,17.10
2010,07,19,13,09,17.10
2010,07,19,13,10,17.20
2010,07,19,13,11,17.20
2010,07,19,13,12,17.20
2010,07,19,13,13,17.10
2010,07,19,13,14,17.10
2010,07,19,13,15,17.10
2010,07,19,13,16,17.10
2010,07,19,13,17,17.10
2010,07,19,13,18,17.10
2010,07,19,13,19,17.10
2010,07,19,13,20,17.10
2010,07,19,13,21,17.10
2010,07,19,13,22,17.10
2010,07,19,13,23,17.00
2010,07,19,13,24,17.00
2010,07,19,13,25,17.00
2010,07,19,13,26,16.90
2010,07,19,13,27,16.90
2010,07,19,13,28,17.00
2010,07,19,13,29,17.00
2010,07,19,13,30,17.10
2010,07,19,13,31,17.10
2010,07,19,13,32,17.10
2010,07,19,13,33,17.10
2010,07,19,13,34,17.10
2010,07,19,13,35,17.10
2010,07,19,13,36,17.20
2010,07,19,13,37,17.20
2010,07,19,13,38,17.20
2010,07,19,13,39,17.20
2010,07,19,13,40,17.10
2010,07,19,13,41,17.00
2010,07,19,13,42,17.00
2010,07,19,13,43,17.00
2010,07,19,13,44,17.00
2010,07,19,13,45,17.00
2010,07,19,13,46,17.00
2010,07,19,13,47,17.10
2010,07,19,13,48,17.20
2010,07,19,13,49,17.20
2010,07,19,13,50,17.20
2010,07,19,13,51,17.30
2010,07,19,13,52,17.30
2010,07,19,13,53,17.30
2010,07,19,13,54,17.30
2010,07,19,13,55,17.20
2010,07,19,13,56,17.10
2010,07,19,13,57,17.10
2010,07,19,13,58,17.00
2010,07,19,13,59,16.90
2010,07,19,14,00,16.90
2010,07,19,14,01,16.90
2010,07,19,14,02,16.90
2010,07,19,14,03,16.90
2010,07,19,14,04,16.90
2010,07,19,14,05,16.90
2010,07,19,14,06,16.90
2010,07,19,14,07,16.90
2010,07,19,14,08,16.90
2010,07,19,14,09,17.00
2010,07,19,14,10,17.00
2010,07,19,14,11,17.10
2010,07,19,14,12,17.10
2010,07,19,14,13,17.20
2010,07,19,14,14,17.20
2010,07,19,14,15,17.20
2010,07,19,14,16,17.30
2010,07,19,14,17,17.30
2010,07,19,14,18,17.20
2010,07,19,14,19,17.20
2010,07,19,14,20,17.20
2010,07,19,14,21,17.20
2010,07,19,14,22,17.20
2010,07,19,14,23,17.30
2010,07,19,14,24,17.30
2010,07,19,14,25,17.30
2010,07,19,14,26,17.30
2010,07,19,14,27,17.30
2010,07,19,14,28,17.30
2010,07,19,14,29,17.30
2010,07,19,14,30,17.30
2010,07,19,14,31,17.30
2010,07,19,14,32,17.30
2010,07,19,14,33,17.30
2010,07,19,14,34,17.30
2010,07,19,14,35,17.20
2010,07,19,14,36,17.20
2010,07,19,14,37,17.20
2010,07,19,14,38,17.20
2010,07,19,14,39,17.30
2010,07,19,14,40,17.40
2010,07,19,14,41,17.50
2010,07,19,14,42,17.60
2010,07,19,14,43,17.70
2010,07,19,14,44,17.70
2010,07,19,14,45,17.70
2010,07,19,14,46,17.70
2010,07,19,14,47,17.70
2010,07,19,14,48,17.80
2010,07,19,14,49,17.80
2010,07,19,14,50,17.90
2010,07,19,14,51,18.00
2010,07,19,14,52,18.00
2010,07,19,14,53,18.00
2010,07,19,14,54,18.00
2010,07,19,14,55,17.90
2010,07,19,14,56,17.80
2010,07,19,14,57,17.80
2010,07,19,14,58,17.70
2010,07,19,14,59,17.70
2010,07,19,15,00,17.70
2010,07,19,15,01,17.60
2010,07,19,15,02,17.60
2010,07,19,15,03,17.60
2010,07,19,15,04,17.60
2010,07,19,15,05,17.60
2010,07,19,15,06,17.70
2010,07,19,15,07,17.70
2010,07,19,15,08,17.70
2010,07,19,15,09,17.80
2010,07,19,15,10,17.80
2010,07,19,15,11,17.90
2010,07,19,15,12,18.00
2010,07,19,15,13,18.10
2010,07,19,15,14,18.10
2010,07,19,15,15,18.20
2010,07,19,15,16,18.30
2010,07,19,15,17,18.40
2010,07,19,15,18,18.50
2010,07,19,15,19,18.60
2010,07,19,15,20,18.70
2010,07,19,15,21,18.80
2010,07,19,15,22,18.70
2010,07,19,15,23,18.70
2010,07,19,15,24,18.70
2010,07,19,15,25,18.70
2010,07,19,15,26,18.70
2010,07,19,15,27,18.80
2010,07,19,15,28,18.80
2010,07,19,15,29,18.70
2010,07,19,15,30,18.70
2010,07,19,15,31,18.70
2010,07,19,15,32,18.70
2010,07,19,15,33,18.70
2010,07,19,15,34,18.70
2010,07,19,15,35,18.80
2010,07,19,15,36,18.80
2010,07,19,15,37,18.90
2010,07,19,15,38,18.90
2010,07,19,15,39,18.90
2010,07,19,15,40,18.90
2010,07,19,15,41,18.90
2010,07,19,15,42,19.00
2010,07,19,15,43,19.00
2010,07,19,15,44,18.90
2010,07,19,15,45,18.80
2010,07,19,15,46,18.80
2010,07,19,15,47,18.80
2010,07,19,15,48,18.80
2010,07,19,15,49,18.70
2010,07,19,15,50,18.70
2010,07,19,15,51,18.70
2010,07,19,15,52,18.60
2010,07,19,15,53,18.50
2010,07,19,15,54,18.50
2010,07,19,15,55,18.40
2010,07,19,15,56,18.40
2010,07,19,15,57,18.40
2010,07,19,15,58,18.40
2010,07,19,15,59,18.30
2010,07,19,16,00,18.30
2010,07,19,16,01,18.20
2010,07,19,16,02,18.10
2010,07,19,16,03,18.10
2010,07,19,16,04,18.10
2010,07,19,16,05,18.20
2010,07,19,16,06,18.20
2010,07,19,16,07,18.30
2010,07,19,16,08,18.30
2010,07,19,16,09,18.30
2010,07,19,16,10,18.30
2010,07,19,16,11,18.30
2010,07,19,16,12,18.30
2010,07,19,16,13,18.20
2010,07,19,16,14,18.10
2010,07,19,16,15,18.00
2010,07,19,16,16,18.00
2010,07,19,16,17,17.90
2010,07,19,16,18,17.90
2010,07,19,16,19,17.80
2010,07,19,16,20,17.80
2010,07,19,16,21,17.80
2010,07,19,16,22,17.80
2010,07,19,16,23,17.90
2010,07,19,16,24,17.90
2010,07,19,16,25,17.90
2010,07,19,16,26,18.00
2010,07,19,16,27,18.00
2010,07,19,16,28,18.10
2010,07,19,16,29,18.20
2010,07,19,16,30,18.20
2010,07,19,16,31,18.20
2010,07,19,16,32,18.20
2010,07,19,16,33,18.20
2010,07,19,16,34,18.20
2010,07,19,16,35,18.10
2010,07,19,16,36,18.00
2010,07,19,16,37,17.90
2010,07,19,16,38,17.90
2010,07,19,16,39,17.80
2010,07,19,16,40,17.70
2010,07,19,16,41,17.70
2010,07,19,16,42,17.70
2010,07,19,16,43,17.70
2010,07,19,16,44,17.60
2010,07,19,16,45,17.60
2010,07,19,16,46,17.60
2010,07,19,16,47,17.60
2010,07,19,16,48,17.60
2010,07,19,16,49,17.60
2010,07,19,16,50,17.60
2010,07,19,16,51,17.50
2010,07,19,16,52,17.50
2010,07,19,16,53,17.60
2010,07,19,16,54,17.60
2010,07,19,16,55,17.60
2010,07,19,16,56,17.60
2010,07,19,16,57,17.60
2010,07,19,16,58,17.50
2010,07,19,16,59,17.50
2010,07,19,17,00,17.40
2010,07,19,17,01,17.40
2010,07,19,17,02,17.40
2010,07,19,17,03,17.40
2010,07,19,17,04,17.40
2010,07,19,17,05,17.40
2010,07,19,17,06,17.40
2010,07,19,17,07,17.40
2010,07,19,17,08,17.40
2010,07,19,17,09,17.50
2010,07,19,17,10,17.60
2010,07,19,17,11,17.60
2010,07,19,17,12,17.60
2010,07,19,17,13,17.60
2010,07,19,17,14,17.60
2010,07,19,17,15,17.50
2010,07,19,17,16,17.50
2010,07,19,17,17,17.40
2010,07,19,17,18,17.30
2010,07,19,17,19,17.30
2010,07,19,17,20,17.30
2010,07,19,17,21,17.30
2010,07,19,17,22,17.40